Wind_Speed
2 2 3 5 4 7 6 5 4 3 3 2 2 1 4 5 3 2 4 3 2 6 4 4 6 6 5 5 7 10 9 6 4 3 3 3 2 3 5 6 7 7 7 7 8 8 9 10 10 11 10 10 9 9 9 9 9 9 10 10 9 9 9 10 10 10 10 10 11 11 11 11 10 10 11 11 11 9 9 8 8 8 8 7 7 7 6 6 6 6 6 5 5 5 5 5 5
2 4 5 5 5 8 2 3 4 2 3 3 3 3 3 3 2 3 6 5 4 4 2 4 6 7 6 7 6 8 9 9 7 4 5 3 2 4 6 6 8 7 8 7 8 8 8 10 10 11 11 10 10 10 10 10 10 9 9 9 9 9 10 10 10 10 10 10 11 11 11 11 11 11 11 11 11 11 10 10 9 9 9 9 8 7 7 7 7 7 7 7 6 6 6 6 6
3 5 5 6 6 5 2 3 4 1 1 2 4 4 2 3 4 3 6 6 4 3 1 3 5 4 0 4 6 5 6 8 8 4 5 4 1 5 6 6 7 7 8 8 8 8 9 10 10 10 10 10 10 10 10 10 9 9 9 9 9 9 10 10 10 10 10 11 11 11 11 10 10 10 10 10 11 11 10 10 10 10 10 10 9 9 9 9 9 9 8 8 8 7 8 7 8
3 4 6 7 5 3 4 3 2 3 2 3 4 5 4 4 5 5 7 5 3 2 1 2 4 2 1 6 5 4 6 5 7 5 4 5 4 5 5 6 6 7 8 9 9 9 10 10 9 10 10 10 9 9 9 9 9 9 9 10 10 10 10 10 10 10 10 10 11 10 10 10 10 10 10 10 10 10 10 9 9 9 9 9 10 10 10 10 10 10 9 10 10 9 9 9 9
2 4 5 7 4 1 3 1 2 3 4 4 3 6 5 4 5 6 6 5 4 3 2 1 3 2 4 8 3 2 4 1 6 7 4 5 5 5 6 6 6 7 9 9 10 10 10 10 9 9 9 9 8 8 9 9 9 10 10 11 11 11 11 11 10 10 10 10 10 10 10 10 10 10 10 10 10 10 10 9 9 8 8 8 8 9 9 10 10 10 10 11 11 10 10 10 11
4 4 2 4 2 1 3 1 3 5 5 6 4 5 4 4 5 5 6 6 5 5 4 3 3 4 6 7 6 5 5 2 4 5 4 4 5 6 6 6 6 8 9 9 9 9 10 10 10 9 9 9 9 9 9 9 10 10 11 11 11 11 11 11 11 10 9 10 10 10 10 10 10 10 10 11 11 11 10 10 9 9 9 9 9 9 9 10 10 10 10 11 11 11 12 12 12
5 5 2 2 2 2 2 3 4 5 5 5 4 5 5 5 4 4 4 4 5 6 6 6 4 5 5 3 5 7 7 6 3 4 6 5 6 7 7 7 7 8 8 9 8 9 9 10 10 9 9 9 9 9 9 9 10 10 10 11 10 10 10 11 11 9 9 10 10 10 10 10 10 10 10 11 11 11 11 10 10 10 10 10 11 11 10 10 10 10 10 11 11 12 12 12 13
5 4 2 2 2 1 1 4 5 4 5 4 5 5 5 5 4 4 4 3 4 5 5 5 4 5 5 2 4 4 6 8 5 5 6 6 7 7 8 8 7 8 8 8 8 8 9 9 9 9 9 9 9 9 8 9 9 10 10 10 10 9 9 9 10 9 9 10 10 10 10 10 10 10 10 11 12 12 11 10 10 11 11 11 11 11 11 11 11 11 11 11 11 12 12 12 12
4 2 2 3 1 1 2 4 5 5 6 4 5 6 5 4 3 4 5 6 5 4 4 4 3 4 4 5 6 3 6 8 5 6 7 7 8 7 8 8 8 9 9 8 8 8 8 9 9 9 9 9 8 8 8 9 9 9 10 10 10 9 8 9 9 9 10 10 10 11 11 11 11 10 10 11 11 12 11 11 11 11 12 12 12 11 11 11 11 12 12 12 12 13 12 12 12
3 1 3 3 1 1 2 3 5 5 6 5 6 6 5 4 3 4 6 7 4 3 5 3 4 7 5 6 5 3 5 5 5 7 8 8 7 7 8 8 9 9 9 9 8 8 8 9 10 10 9 9 9 8 8 9 9 9 9 10 10 10 9 9 9 10 10 9 10 11 12 12 11 10 10 10 11 11 11 11 11 12 12 12 12 12 11 11 12 12 12 13 13 13 13 13 13
3 1 3 3 2 1 2 3 4 5 5 5 6 6 5 4 3 5 5 6 4 4 4 3 4 7 6 6 4 3 5 4 6 8 8 8 7 8 7 8 9 9 9 8 8 8 7 8 9 10 10 9 9 9 9 9 9 9 9 10 10 10 9 9 9 9 8 8 10 10 11 12 11 11 10 11 11 11 11 12 12 12 12 12 13 13 13 12 12 13 12 13 12 13 13 13 13
3 1 3 3 2 3 3 3 5 5 6 5 6 6 4 3 3 5 5 5 4 6 6 5 2 2 3 7 3 4 8 8 8 9 7 7 7 8 8 8 9 9 9 8 8 8 8 8 9 10 9 9 9 9 9 9 8 9 9 10 10 8 8 9 8 8 8 8 9 10 11 11 11 11 11 11 11 12 12 12 12 13 13 13 13 13 13 13 13 13 13 13 12 12 13 13 13
3 2 4 2 3 2 2 3 4 4 5 5 6 6 5 4 5 5 4 6 6 5 6 7 4 3 1 6 6 7 8 9 7 7 7 7 8 8 8 9 9 9 9 9 9 9 9 9 9 10 10 9 9 9 8 9 9 9 9 9 9 7 8 8 8 8 7 8 9 10 11 11 11 11 12 12 12 12 12 12 13 13 13 13 13 14 13 14 13 13 13 13 12 12 13 13 12
3 3 4 1 1 1 2 2 3 4 4 5 6 5 5 5 5 3 3 6 7 5 4 7 5 2 2 5 6 6 6 7 6 6 7 7 8 8 9 9 9 10 10 11 10 10 10 10 10 11 12 10 9 8 9 10 10 10 9 8 7 7 7 8 8 8 8 9 9 10 11 12 12 12 12 12 13 12 12 13 13 13 13 13 13 14 14 14 14 14 14 14 13 13 13 13 14
2 1 2 0 2 2 2 1 2 5 4 5 7 5 6 5 3 4 5 5 5 3 1 4 6 3 5 6 5 6 5 6 6 5 7 8 8 8 8 8 9 9 10 11 11 11 11 11 11 11 12 11 9 9 9 10 10 9 8 7 7 7 8 8 9 9 9 10 10 11 12 12 12 12 12 12 13 13 13 13 14 14 14 14 14 15 14 15 15 15 15 16 16 16 16 16 16
2 2 2 0 1 2 2 1 1 4 5 7 6 5 7 6 4 6 6 4 6 5 3 6 8 5 9 9 6 6 3 4 4 5 7 7 8 7 7 7 8 8 9 11 11 11 11 12 12 11 12 11 10 9 9 10 10 9 9 8 8 8 9 10 10 11 12 12 13 13 13 12 11 12 12 12 12 13 13 14 14 15 15 15 16 16 16 16 16 16 16 16 17 18 18 19 19
2 3 1 1 2 3 2 2 2 4 7 8 5 5 8 7 6 6 5 5 7 9 9 9 10 9 9 7 6 6 3 4 5 6 6 6 7 7 7 6 7 7 8 10 12 12 11 12 13 11 11 11 10 9 9 9 10 10 11 10 10 11 11 12 12 13 13 13 14 14 13 12 11 11 12 12 11 11 13 16 16 17 17 18 18 18 18 18 18 19 18 18 19 18 19 20 20
3 2 1 2 4 5 4 5 5 6 8 8 5 6 8 7 6 5 5 8 9 10 10 9 11 11 9 8 7 6 6 7 7 8 8 7 7 7 7 7 8 9 9 10 12 13 12 12 13 12 11 11 9 9 9 9 10 11 11 11 12 12 13 13 13 14 14 13 14 13 12 12 12 11 12 13 12 11 13 17 18 17 18 18 20 20 17 18 20 20 18 20 20 18 18 17 17
3 2 2 4 6 6 6 7 8 7 9 9 8 7 7 6 5 4 5 8 8 9 9 8 11 11 10 10 8 8 9 10 9 10 9 9 9 8 8 8 9 10 10 10 11 13 13 12 12 12 12 11 10 9 9 10 10 11 11 11 11 11 12 12 13 14 14 14 14 13 12 12 12 11 12 13 12 12 12 14 15 15 16 16 19 20 15 16 20 18 16 19 18 15 15 14 15
3 2 3 6 7 8 8 8 9 9 9 9 9 8 8 8 5 4 7 10 9 9 7 7 10 10 10 10 9 10 11 11 10 10 10 10 9 9 9 10 10 10 11 10 11 13 14 13 12 12 12 12 11 10 10 10 10 10 10 10 10 10 11 11 12 13 14 15 14 13 13 13 13 11 12 13 12 13 13 14 14 15 16 16 18 18 15 16 18 16 15 17 16 14 14 14 15
3 4 6 8 8 9 9 9 9 8 8 8 9 10 10 9 5 4 5 8 9 8 7 8 10 10 10 10 9 10 11 11 10 10 10 10 10 10 10 10 10 10 10 10 12 13 14 13 12 12 12 12 11 11 10 10 10 10 10 10 10 10 11 11 11 12 13 15 14 14 14 13 13 12 12 13 13 13 14 15 15 15 16 16 17 17 15 17 17 16 16 16 15 14 14 14 15
6 8 8 8 9 9 9 9 9 7 7 8 8 9 9 8 7 6 5 7 7 6 7 8 9 10 10 9 9 11 11 10 9 10 10 11 11 10 10 9 9 9 10 12 13 13 14 14 13 12 12 12 11 10 9 9 9 9 10 10 10 10 11 11 11 12 13 14 14 14 14 14 13 13 13 13 13 13 14 15 15 15 16 16 17 16 16 17 16 16 16 16 15 14 14 14 14
6 8 9 9 10 10 9 8 8 7 8 8 9 9 8 10 10 10 11 10 7 6 7 8 9 10 10 9 10 10 9 9 9 10 11 11 11 11 10 10 10 10 11 12 12 13 14 14 14 12 11 11 10 10 9 9 9 9 9 10 10 11 11 11 12 13 13 13 14 14 14 14 13 13 13 13 13 13 14 15 15 14 15 15 16 16 16 17 17 16 16 16 16 15 15 15 14
9 10 9 10 11 10 9 8 7 7 10 10 9 9 9 11 10 9 11 10 8 8 9 10 10 10 10 10 9 9 9 9 9 10 11 11 10 10 10 11 12 12 12 13 12 13 13 13 13 12 11 10 9 9 9 8 9 9 9 9 10 10 11 12 12 13 13 13 14 14 13 13 13 12 13 13 13 13 13 14 14 14 14 15 16 16 16 17 17 17 17 17 17 16 16 15 15
10 10 10 10 10 10 9 9 10 10 10 9 10 11 11 12 11 10 11 9 9 9 8 9 10 9 10 9 8 8 9 9 10 10 11 10 10 11 12 12 13 13 13 12 12 13 12 12 12 11 10 9 9 8 8 8 8 8 9 9 9 10 11 12 12 13 13 13 13 14 13 13 13 13 14 13 13 13 13 13 13 14 14 15 16 16 17 18 18 17 17 18 17 17 17 16 16
10 11 11 11 11 10 10 10 11 10 8 8 11 12 11 10 8 10 10 7 9 9 8 8 9 9 8 8 8 8 9 10 10 10 10 10 11 13 13 13 13 13 13 12 12 12 11 11 11 11 10 9 8 8 8 8 8 8 9 9 9 11 11 12 12 12 12 12 13 13 13 13 13 13 14 14 13 13 13 13 13 14 15 15 16 17 18 18 18 18 17 18 18 17 17 16 16
11 13 12 12 12 10 10 11 11 9 8 9 10 10 9 7 4 7 8 6 7 9 9 9 9 9 7 7 8 9 11 11 10 10 10 10 10 11 12 12 13 13 13 12 12 11 11 11 11 10 10 9 8 8 8 8 8 8 9 9 10 11 12 12 12 12 12 11 12 13 13 13 13 14 15 14 14 13 13 14 14 15 15 16 17 17 19 19 18 18 18 18 18 18 18 17 17
13 14 14 13 12 10 9 9 9 7 8 9 11 12 12 10 8 9 8 6 6 8 10 9 8 7 7 8 8 9 11 10 9 10 10 10 10 11 11 11 11 11 12 13 12 12 12 11 10 10 10 9 9 8 8 8 8 8 9 9 10 11 11 11 12 12 11 11 12 13 13 13 13 14 14 15 15 13 13 14 14 15 15 17 18 18 20 19 18 18 18 18 18 18 18 17 17
13 12 12 12 11 10 8 8 8 7 8 6 4 8 11 10 9 9 7 6 7 9 9 7 6 7 7 8 8 9 10 9 8 9 10 10 10 11 11 11 10 10 11 12 13 14 13 11 10 10 10 9 9 8 8 8 8 8 9 10 10 11 10 11 11 11 11 10 11 13 13 13 14 14 14 15 15 14 13 14 15 15 17 19 18 19 20 19 17 18 18 18 18 18 18 17 17
10 9 8 9 9 9 8 8 7 6 6 2 3 3 8 9 8 8 7 6 7 8 7 6 5 6 7 7 8 8 9 8 8 9 10 10 10 11 11 11 11 11 11 12 14 14 14 12 10 10 10 10 9 9 8 8 9 9 9 9 10 10 9 10 11 10 11 11 11 12 14 14 14 14 14 15 15 14 14 14 15 16 18 20 19 19 19 18 17 18 18 18 18 17 18 18 18
6 6 5 3 4 7 6 4 3 2 3 1 2 3 7 8 8 7 6 5 6 7 7 6 5 6 6 7 7 7 7 8 8 9 10 9 9 10 11 11 11 12 12 12 13 14 14 13 11 10 11 10 9 9 8 8 8 8 8 9 9 10 9 10 10 10 11 11 11 12 14 14 14 15 15 15 14 14 15 15 16 17 20 20 19 18 17 17 17 17 17 17 17 17 18 18 18
4 3 3 2 3 6 6 3 1 0 5 5 3 3 7 8 8 7 6 5 5 6 6 6 6 6 6 7 6 6 6 7 8 10 10 9 9 9 10 10 11 12 12 13 13 13 13 13 12 11 11 11 10 9 8 8 7 7 8 8 9 9 9 9 10 10 11 12 12 13 14 13 13 14 15 15 15 15 16 16 17 19 20 20 18 18 17 16 17 18 18 17 18 19 19 20 19
3 1 3 4 4 6 5 5 2 0 3 4 2 2 7 8 8 7 6 6 5 5 6 6 5 5 6 6 5 5 5 6 7 9 8 7 8 8 9 10 10 11 12 13 13 13 13 12 12 11 11 11 10 9 8 7 7 7 7 8 8 8 9 10 10 10 11 12 12 13 14 13 14 15 15 15 15 16 17 17 18 19 20 19 18 17 16 16 17 18 19 19 19 20 21 22 22
2 1 4 4 4 4 5 5 4 1 2 2 3 5 7 8 8 7 6 6 5 5 6 6 5 4 5 5 4 4 4 4 6 8 7 7 8 8 8 9 10 10 11 12 12 12 12 12 12 11 11 10 10 10 9 7 7 7 7 7 8 8 9 10 10 10 11 11 12 13 14 14 14 15 16 16 16 17 18 18 18 19 19 17 17 17 16 16 18 19 21 21 20 21 22 22 22
3 3 4 5 5 6 6 5 4 2 3 4 6 7 8 9 8 6 6 6 5 5 5 5 4 4 4 4 3 3 4 4 6 8 7 7 7 6 7 8 9 9 10 10 12 12 12 12 11 11 11 11 10 9 9 8 7 7 7 7 8 9 9 9 10 10 11 12 13 13 14 14 15 16 17 17 17 17 18 18 18 18 18 17 17 17 17 18 20 22 23 23 22 21 20 20 20
4 4 4 5 6 7 8 7 4 2 5 6 6 6 7 9 8 7 7 6 5 5 5 4 4 4 3 3 3 3 4 5 7 8 6 5 5 5 6 7 8 8 9 10 11 12 13 12 12 11 11 12 11 10 10 10 9 8 8 8 8 9 9 9 10 11 11 12 13 13 14 15 15 16 17 17 17 17 17 17 18 18 18 17 17 19 19 21 22 23 22 22 22 21 20 19 19
5 5 6 7 7 7 8 8 5 1 2 5 5 6 7 7 7 7 7 7 6 6 6 5 4 4 3 3 4 4 5 6 8 8 6 5 5 4 5 6 7 7 8 9 10 11 12 12 12 12 11 12 12 11 11 10 10 9 9 9 8 9 10 9 10 11 11 12 14 14 14 15 16 16 17 17 17 18 18 17 18 19 19 18 18 19 20 21 21 20 20 20 21 21 20 19 20
5 5 6 6 6 7 7 5 4 1 1 4 5 6 7 6 6 7 6 7 6 6 6 6 6 5 3 3 4 5 5 6 8 7 6 4 4 4 5 5 6 7 8 9 9 10 11 12 12 12 11 11 12 12 11 10 11 10 9 9 8 8 10 10 10 11 11 13 14 14 14 15 16 16 17 18 18 18 18 18 18 19 19 19 18 19 20 20 20 19 18 19 19 20 20 19 20
4 4 4 5 6 7 6 3 3 2 2 4 6 5 6 6 6 6 6 5 4 4 4 4 4 4 4 4 4 4 5 6 7 6 5 4 3 3 4 4 5 6 7 8 8 9 11 12 12 12 12 11 12 12 11 11 11 10 8 8 8 8 9 10 10 11 12 13 14 14 14 15 16 17 19 19 18 18 18 18 18 18 19 19 18 20 21 20 20 19 19 19 19 19 19 18 19
3 2 2 5 5 3 4 5 4 2 1 2 5 4 4 5 6 6 5 4 4 4 3 3 3 3 4 4 3 5 6 6 6 6 5 4 3 2 3 4 4 5 6 7 8 9 10 11 12 12 12 12 12 13 12 11 11 9 7 7 7 6 8 9 9 11 12 13 13 14 15 16 17 19 19 19 18 17 18 18 19 19 19 18 19 21 21 19 20 20 19 19 18 17 18 19 19
3 2 2 5 5 0 4 6 5 3 2 1 4 4 4 6 6 7 6 5 5 5 5 5 4 4 3 4 4 5 5 5 6 6 5 5 3 2 3 3 3 4 6 6 7 8 9 10 12 12 12 12 12 14 13 11 11 11 9 8 8 7 8 10 11 13 13 13 14 15 15 16 17 18 19 19 18 17 18 19 20 19 20 20 20 21 20 19 19 19 19 19 18 16 18 21 20
3 3 3 4 5 4 6 7 5 3 3 3 4 3 4 6 7 7 7 7 7 7 7 6 6 5 4 5 5 5 5 5 5 6 5 5 4 3 3 3 3 4 5 5 6 8 9 10 12 12 12 12 13 14 13 11 11 12 11 11 11 10 10 12 13 14 14 14 15 15 15 15 17 18 18 18 18 18 18 20 20 21 21 21 21 22 20 19 19 19 20 20 19 18 19 22 21
4 4 3 3 4 5 7 6 4 1 3 4 4 3 2 6 7 7 8 8 8 8 8 8 8 7 6 6 6 6 5 5 4 5 5 4 4 3 3 3 3 4 4 4 5 7 9 10 12 12 12 12 13 13 13 12 11 12 12 11 11 11 11 12 13 13 13 14 15 16 15 15 16 18 18 18 19 19 19 21 21 21 22 21 23 23 21 20 20 20 21 20 21 21 21 22 22
5 5 4 4 4 6 5 3 2 2 2 4 5 4 2 3 6 8 8 8 9 9 9 9 8 8 8 7 7 7 7 6 5 5 5 5 4 3 3 3 3 4 3 4 5 6 9 10 12 12 12 12 13 13 13 13 12 12 12 12 11 12 12 12 12 13 13 13 15 15 15 14 16 17 17 18 19 20 20 22 22 22 22 22 23 22 20 20 20 20 21 22 21 20 21 22 22
5 5 4 3 4 4 2 4 2 1 2 3 5 5 4 3 6 7 8 8 8 10 10 10 10 10 10 9 8 8 8 7 6 5 5 5 4 4 4 4 4 4 3 4 5 6 8 10 11 12 11 12 13 13 13 13 13 12 12 13 12 12 12 12 12 13 13 14 15 15 15 15 16 17 17 18 19 21 21 22 22 21 22 23 22 20 19 20 20 21 22 24 23 21 21 22 23
6 5 3 3 4 4 4 5 3 2 3 1 4 3 4 3 6 6 7 7 8 9 10 10 11 11 10 9 9 9 8 7 6 6 6 6 5 5 5 5 4 4 3 4 5 6 8 9 11 12 12 11 12 13 14 13 13 13 12 13 14 13 13 13 13 14 14 14 15 16 16 16 17 18 18 18 20 21 22 23 22 22 22 22 20 19 20 21 21 22 23 24 23 22 23 23 24
7 6 4 4 4 4 5 4 3 4 2 3 3 3 4 1 5 5 5 5 6 8 9 10 11 12 11 10 10 9 9 8 6 7 7 7 7 7 7 6 5 4 3 3 5 7 8 9 10 11 12 12 12 13 14 14 13 13 13 13 14 14 13 13 14 15 15 15 16 17 17 16 17 18 18 18 20 23 23 23 22 21 21 21 20 20 22 23 23 23 23 23 23 23 24 24 24
6 4 3 3 4 4 4 3 3 3 2 4 2 3 4 2 3 4 6 5 5 6 9 12 13 13 12 11 10 10 9 8 7 7 8 9 9 8 7 7 6 5 4 4 5 7 8 9 9 10 12 12 12 13 13 14 13 14 13 13 14 14 14 14 15 16 17 16 17 17 17 17 17 18 18 19 21 23 23 22 22 22 20 20 20 21 23 24 25 24 22 23 24 23 23 25 24
4 2 3 4 1 1 1 1 1 1 4 4 1 2 3 1 4 4 6 7 6 5 7 12 14 14 13 12 11 10 9 9 8 7 8 9 9 9 8 7 6 5 4 4 5 7 8 9 9 10 11 12 12 13 12 13 14 14 14 14 13 13 14 15 15 16 17 17 17 17 18 18 18 19 19 20 21 23 23 22 23 23 20 20 21 22 23 24 24 23 23 24 25 24 24 26 25
5 3 3 3 3 3 3 3 3 3 4 4 2 3 2 1 4 5 4 5 6 5 6 10 13 14 14 13 12 11 10 9 8 8 8 8 9 9 9 8 6 5 4 4 5 6 7 8 9 10 11 12 12 12 12 12 13 14 14 14 13 13 14 15 15 16 16 16 16 17 17 18 18 19 19 20 21 22 23 22 22 21 20 20 22 23 23 22 23 24 25 24 24 25 27 27 25
4 3 3 4 3 4 4 4 5 5 2 3 3 2 3 3 4 5 4 3 5 6 6 9 12 13 13 13 12 11 11 10 9 9 9 9 10 9 9 8 7 6 5 5 6 6 7 7 8 10 11 12 12 12 11 12 12 13 14 13 14 14 14 14 15 15 15 16 15 16 17 17 18 18 19 20 21 22 22 21 21 20 19 20 21 23 23 23 25 26 27 27 26 27 28 28 26
2 2 4 3 3 4 4 3 4 5 3 1 2 1 3 4 4 5 5 5 7 8 8 10 12 13 13 12 12 11 11 10 10 9 9 10 11 10 9 9 8 7 6 6 6 6 6 7 8 10 11 11 11 11 11 11 11 13 13 13 14 14 14 14 14 15 15 15 15 15 16 16 17 18 19 20 21 22 22 21 20 19 19 19 21 22 23 24 26 27 29 30 30 30 29 28 29
2 3 2 1 3 5 4 2 2 3 2 3 2 1 4 5 4 5 6 7 10 11 11 11 12 13 13 11 11 11 11 10 10 9 9 11 11 11 10 9 8 8 7 7 7 6 6 7 8 10 11 11 10 10 10 10 10 12 13 13 13 14 14 15 15 15 15 14 14 15 15 16 17 18 19 20 21 22 22 20 20 19 20 21 22 22 22 24 26 27 30 30 30 31 28 28 31
2 2 1 2 2 3 3 2 2 1 3 3 3 3 4 3 2 4 8 9 11 12 12 13 13 14 13 12 11 12 12 11 10 10 10 11 12 11 11 10 9 9 8 8 7 6 6 7 8 9 11 10 9 9 9 10 10 11 12 13 14 14 14 14 14 14 14 14 15 15 15 16 17 19 19 20 21 21 21 20 20 20 21 22 23 23 23 25 26 27 30 29 29 30 28 31 34
5 3 1 2 4 2 1 2 4 4 4 4 4 4 4 5 5 3 7 10 12 13 13 13 14 14 13 12 12 13 12 11 10 10 10 11 12 12 12 11 10 10 9 9 8 7 7 7 8 9 10 9 9 9 9 11 11 11 12 13 13 14 14 14 14 14 14 15 15 16 16 16 17 19 19 20 21 21 21 21 20 20 21 22 23 23 23 25 26 28 29 29 29 28 27 33 35
5 4 3 3 4 3 2 3 4 4 4 4 6 4 4 6 6 4 1 8 13 13 13 13 14 15 13 12 12 12 12 11 10 10 10 11 13 13 13 12 11 11 10 9 8 7 7 7 8 8 8 8 8 9 10 11 12 12 12 13 13 13 13 14 14 14 15 15 15 16 16 16 17 18 19 20 21 21 21 21 20 21 21 22 23 24 24 24 26 28 28 29 30 28 27 32 35
6 6 5 4 2 2 3 3 2 4 4 4 5 5 4 6 4 4 3 5 11 13 13 12 12 14 13 12 12 12 11 11 10 10 10 12 13 13 13 12 11 11 10 9 8 7 7 7 8 8 7 7 8 9 10 10 11 12 12 13 13 13 13 13 14 15 15 15 15 15 16 16 17 18 19 20 20 21 20 20 20 21 22 22 23 24 24 24 26 28 28 31 34 31 28 29 31
5 5 4 4 4 3 4 2 1 2 4 4 5 5 4 4 2 2 2 3 9 12 13 11 12 14 13 12 12 12 11 11 11 10 11 13 14 14 13 12 11 11 10 9 8 7 7 7 7 7 7 7 8 9 10 10 11 11 12 12 12 13 13 13 14 15 16 15 15 15 15 16 16 17 18 20 20 20 20 20 19 21 22 23 24 24 24 24 25 28 29 32 35 32 28 29 29
Wind_Direction
333 343 353 346 292 271 257 243 245 181 236 106 77 87 76 42 50 72 71 65 66 64 20 14 42 40 62 84 89 74 43 34 29 6 74 82 68 21 7 2 2 13 8 12 19 25 25 21 24 24 27 26 25 25 23 26 26 24 21 17 14 16 15 14 13 10 8 5 3 5 6 5 4 0 357 359 358 355 351 345 346 348 341 338 339 333 330 324 323 318 313 315 316 320 318 308 296
336 355 342 328 271 269 275 244 264 187 201 124 77 30 65 79 77 25 42 46 39 73 76 37 47 44 72 101 90 81 62 47 43 56 79 87 137 56 14 355 6 18 13 18 24 30 31 24 25 24 26 25 25 24 23 25 25 24 20 19 19 20 19 16 13 9 6 5 4 7 9 6 7 4 1 2 360 360 355 352 354 352 344 341 336 330 329 326 324 320 319 316 313 318 312 305 299
349 347 309 284 252 260 273 240 271 281 232 92 78 54 48 68 80 58 43 41 45 72 96 78 71 35 75 109 54 51 77 61 43 62 81 64 116 40 11 359 9 20 20 19 24 34 33 29 28 26 27 25 25 24 24 26 26 26 24 24 24 22 18 14 10 7 6 7 7 9 11 8 10 8 7 7 5 5 2 1 0 354 349 344 336 333 329 324 323 319 318 314 310 311 303 298 296
11 334 305 284 254 231 252 238 322 335 20 55 81 68 44 46 61 63 55 40 49 54 348 112 96 38 350 74 56 52 71 76 46 29 71 53 19 14 359 0 14 24 27 21 20 28 27 26 28 28 31 29 29 28 30 30 30 31 30 29 25 19 14 11 8 6 8 9 10 10 11 13 14 12 11 10 8 7 6 6 3 357 352 344 336 333 328 325 323 319 315 312 309 308 303 299 296
331 307 324 299 276 264 281 240 31 22 33 17 67 71 50 56 60 59 64 53 52 51 11 69 89 91 69 52 38 61 42 74 60 36 54 55 17 1 351 359 15 26 31 25 21 25 24 28 32 32 35 35 36 35 36 37 37 37 34 30 23 17 14 11 7 7 9 9 11 11 11 15 15 13 12 11 9 5 3 1 359 357 351 344 337 331 326 323 320 317 314 312 309 304 300 298 296
287 284 296 296 295 351 289 161 66 67 39 359 50 72 54 51 59 73 83 77 63 56 46 41 65 108 94 59 50 54 23 352 59 36 36 43 14 2 358 3 17 28 34 28 27 29 32 40 44 42 43 42 40 39 38 39 39 34 29 23 15 15 16 12 12 12 10 10 14 15 14 12 12 12 11 10 7 3 358 355 353 352 348 343 335 329 324 320 317 315 313 310 308 302 297 294 292
308 293 235 225 185 226 297 59 57 74 52 18 51 67 61 45 41 72 95 92 69 61 59 39 39 96 96 83 68 53 31 27 38 24 26 28 16 12 9 12 24 35 37 33 36 39 46 52 51 50 47 44 41 38 36 35 31 25 20 14 9 10 12 12 14 16 15 18 19 16 14 9 6 8 9 7 4 2 357 354 352 349 346 342 336 331 326 322 318 314 313 310 306 302 299 296 295
304 303 273 258 204 199 17 68 58 63 73 62 63 59 57 47 35 59 72 70 67 60 55 36 21 72 74 61 71 60 40 38 45 35 29 31 24 22 18 19 32 39 38 38 45 47 51 53 51 49 43 40 37 34 31 28 23 19 17 12 10 10 13 12 12 20 24 24 21 18 14 8 4 5 7 5 5 4 1 357 353 350 347 343 338 332 328 324 321 317 313 310 306 304 302 300 299
277 301 272 262 234 108 73 90 84 78 84 72 63 63 54 49 40 53 66 69 73 53 40 24 23 83 89 74 81 92 47 32 50 52 39 38 28 29 26 25 35 38 40 42 46 46 45 47 44 40 35 32 29 27 24 22 21 20 19 17 19 22 23 18 18 30 29 23 24 22 16 11 8 8 9 6 6 6 4 2 358 355 351 346 340 333 328 323 320 318 313 309 306 304 302 300 298
256 299 280 266 259 162 106 92 98 96 86 66 59 59 52 53 48 54 61 68 70 58 54 30 78 116 132 98 91 75 36 24 60 60 44 38 30 34 33 34 40 40 41 39 39 38 36 36 34 32 30 28 24 21 20 20 23 25 24 21 25 29 28 26 31 38 30 22 24 20 14 11 9 9 9 6 4 3 2 0 358 356 353 349 343 337 331 325 321 318 315 311 308 306 303 301 298
251 108 278 264 281 346 64 87 100 101 98 90 74 60 55 56 65 71 66 76 83 80 56 338 85 111 131 105 81 67 60 54 64 58 45 38 35 39 43 45 45 42 40 35 34 33 31 32 31 32 29 27 25 21 20 24 28 26 21 20 25 28 26 26 31 35 27 19 16 11 9 9 8 6 2 1 358 357 355 352 353 352 350 347 342 338 333 329 325 320 318 314 311 309 306 302 299
279 62 266 280 359 14 51 89 103 115 112 97 74 61 58 68 78 74 72 82 85 86 49 350 41 42 119 105 90 99 72 52 54 54 49 45 49 51 57 57 50 47 43 39 36 35 36 37 35 31 28 29 28 24 23 26 25 17 12 16 23 23 21 22 23 23 18 11 7 3 4 3 2 360 355 352 350 349 348 344 343 342 341 339 336 335 332 329 325 321 319 316 314 310 307 304 299
319 338 287 349 20 27 90 102 122 135 101 74 68 60 48 58 65 69 86 73 53 68 35 4 23 347 77 105 100 97 63 45 45 47 53 58 65 64 65 63 58 55 48 46 43 40 41 41 37 31 31 33 32 27 24 22 17 14 13 16 19 15 14 16 14 10 5 2 358 357 357 355 354 351 350 347 345 345 344 341 337 338 335 332 331 329 327 325 323 320 318 316 314 311 308 306 301
335 339 317 27 86 87 93 116 136 120 81 70 72 62 52 51 51 60 75 74 51 37 21 356 349 309 75 97 94 76 44 42 38 42 64 74 75 73 70 67 63 59 52 50 46 44 42 39 36 32 33 35 34 30 23 19 15 17 19 20 17 9 8 8 6 1 356 354 352 352 351 350 349 349 351 348 348 347 347 346 342 342 339 336 334 330 328 324 322 319 316 314 311 308 305 303 302
322 328 310 68 127 103 67 38 102 94 91 87 78 76 73 55 38 61 41 65 70 17 316 21 356 314 44 55 65 54 31 34 33 54 78 85 84 79 75 72 66 59 53 51 46 43 38 34 33 30 31 30 30 28 26 22 17 20 22 22 17 8 7 6 6 4 360 358 355 354 354 356 357 356 0 359 356 354 353 354 350 350 349 345 344 340 337 333 329 324 319 315 311 307 303 299 299
307 264 271 96 99 81 73 37 88 97 102 96 100 109 89 65 41 67 48 63 91 56 52 49 27 21 49 53 60 64 48 30 47 80 91 96 90 84 80 76 69 59 51 47 42 38 32 30 27 24 25 26 25 24 29 26 21 25 24 22 20 15 14 14 13 12 9 5 3 3 4 7 7 4 8 7 4 3 358 359 357 354 353 351 350 347 343 341 338 333 328 323 317 310 305 298 297
254 255 275 59 64 61 55 16 56 109 105 102 126 124 96 89 71 80 86 80 90 77 66 60 52 49 57 65 70 72 64 56 85 96 90 87 82 78 72 64 61 56 48 42 37 30 26 25 22 19 18 21 23 22 28 27 25 29 30 27 27 26 23 23 21 20 17 11 10 9 8 8 5 4 6 3 1 1 355 356 358 355 355 352 350 349 345 343 340 339 335 332 328 320 314 303 297
261 266 344 50 59 59 45 46 79 114 108 101 110 101 102 113 104 111 111 86 85 83 76 76 72 64 70 78 77 81 79 79 89 84 72 62 62 61 59 54 48 44 40 38 34 26 22 21 19 18 16 17 19 22 26 25 25 28 30 30 31 32 29 30 28 25 21 14 12 9 7 3 358 357 359 357 353 352 349 352 355 355 355 350 348 348 345 340 340 343 337 334 336 332 325 311 301
307 357 56 59 61 66 67 73 83 97 103 105 100 92 96 96 103 133 111 91 88 85 84 87 81 76 83 84 78 83 85 83 79 74 68 61 59 54 52 48 42 38 33 32 30 24 19 18 18 19 18 17 19 23 23 23 27 26 27 28 29 30 29 30 28 26 22 15 12 7 4 360 353 349 351 352 348 346 346 350 352 352 352 348 347 345 340 338 340 341 333 334 337 331 325 316 312
332 1 81 78 80 78 77 85 83 87 100 107 102 94 89 83 97 127 108 95 81 73 75 82 84 83 90 90 83 84 85 81 75 71 66 61 56 50 47 42 38 34 29 27 27 24 18 17 19 21 23 21 24 26 25 25 27 28 28 29 27 25 24 24 24 23 20 14 9 4 359 354 349 344 346 347 345 345 345 346 347 348 348 346 347 345 341 341 342 339 335 336 333 326 323 319 318
24 39 84 92 97 89 82 88 88 89 95 102 106 99 89 84 88 114 124 103 81 71 64 68 86 95 97 98 91 87 85 79 73 68 63 58 52 47 45 39 36 30 27 28 27 23 18 19 21 24 29 28 29 29 30 30 29 31 29 27 25 23 21 19 18 17 16 13 6 359 353 349 346 344 346 347 346 348 347 348 347 348 348 347 350 348 346 346 343 341 339 338 334 329 325 321 318
72 65 78 92 100 99 94 93 91 92 97 100 98 90 87 88 76 66 75 83 79 75 72 69 83 94 92 91 90 87 85 79 72 68 62 58 51 46 42 38 36 33 33 32 28 25 19 20 23 27 33 33 33 32 30 32 31 31 29 26 22 20 19 16 15 12 9 8 2 356 352 349 347 347 349 349 350 351 351 351 348 349 350 351 352 350 350 348 343 342 340 337 334 329 326 322 318
98 82 75 83 95 103 103 97 96 100 102 96 89 93 100 95 77 61 63 73 79 78 85 87 85 92 90 87 90 88 83 78 72 67 61 55 48 43 40 38 39 38 39 38 33 30 25 23 26 30 33 31 33 31 29 31 31 30 28 26 23 18 14 12 11 7 3 1 1 357 354 353 351 353 353 352 353 353 353 351 350 351 352 353 353 350 350 348 343 341 338 335 331 328 327 323 320
92 92 84 85 93 100 100 97 97 95 94 95 99 101 95 89 84 75 72 77 88 84 87 97 97 100 99 94 91 87 82 77 72 65 61 56 50 48 46 46 46 45 44 41 37 34 30 26 27 30 31 29 29 28 29 30 29 28 25 23 21 17 11 8 5 360 357 358 1 360 359 359 357 358 357 353 354 353 352 351 351 352 352 353 352 350 348 345 342 338 335 332 329 328 325 322 321
89 97 95 93 96 99 101 100 99 96 96 100 101 95 87 87 86 79 77 83 94 94 97 107 109 105 99 95 94 92 86 78 71 66 62 59 57 55 54 53 52 51 47 42 39 37 32 30 30 30 29 28 27 25 27 26 25 23 21 18 16 12 8 4 359 356 357 359 4 3 3 3 360 1 358 353 352 351 351 351 351 351 350 350 349 348 346 342 339 336 334 331 329 327 323 322 320
96 104 104 104 103 103 104 102 100 99 103 106 101 96 96 100 92 76 73 81 97 111 128 124 110 101 97 99 97 91 82 74 69 66 64 62 61 60 58 57 56 53 48 42 39 35 30 29 30 30 28 26 24 23 25 24 21 18 16 14 11 8 4 359 356 358 1 4 6 4 6 5 2 2 357 351 350 350 351 351 351 350 349 348 346 345 344 340 336 334 334 331 330 327 324 321 318
110 109 107 105 103 104 104 103 103 101 103 107 100 94 94 97 94 81 80 90 105 116 122 112 103 101 103 102 94 82 74 70 68 66 66 65 64 64 62 59 58 54 47 41 35 29 26 24 24 25 25 25 23 22 23 21 20 17 12 10 8 5 1 357 359 2 4 7 8 5 6 6 2 1 357 352 349 349 351 351 349 348 347 345 343 340 340 337 333 333 333 330 328 326 324 320 317
118 114 110 108 108 107 104 104 108 109 104 99 98 98 91 80 77 85 96 119 124 109 103 102 106 109 103 94 84 74 67 65 67 66 64 66 65 65 62 58 57 54 47 40 33 28 23 19 18 20 21 23 23 21 20 17 15 13 10 7 5 2 0 0 2 5 6 8 10 8 5 4 2 359 357 353 350 349 350 349 347 347 345 342 339 336 336 333 329 330 330 328 326 324 322 320 319
123 122 116 118 116 102 98 109 116 118 107 83 84 101 89 78 79 91 110 131 126 110 106 109 110 105 96 88 79 68 62 59 63 68 70 74 73 71 66 58 52 50 46 38 32 29 23 17 16 18 19 22 23 21 18 16 11 7 7 6 4 1 1 4 5 6 7 7 10 10 5 4 2 359 356 353 350 348 347 347 346 345 343 340 335 333 332 331 329 329 330 330 328 326 324 323 322
132 131 123 131 120 94 96 108 114 121 112 31 305 110 90 88 95 104 123 137 131 118 115 116 109 100 91 84 79 71 66 64 66 76 83 82 80 77 71 61 51 46 42 36 32 28 23 18 17 18 18 20 22 21 17 15 11 5 5 6 5 3 3 7 7 6 8 8 9 10 7 5 4 1 357 353 350 348 346 346 345 344 342 337 333 332 331 331 330 329 331 331 330 329 327 327 326
142 145 148 157 109 103 109 105 120 134 123 158 260 122 107 111 114 120 137 144 135 126 125 122 112 104 94 84 80 81 78 76 82 88 88 85 84 79 71 63 53 47 41 35 31 27 24 23 22 22 20 19 19 17 15 13 11 9 8 9 8 6 5 8 9 9 10 10 8 9 8 5 5 3 359 355 351 349 348 346 344 342 338 334 332 330 328 330 330 329 331 331 331 330 329 330 329
165 177 144 114 96 118 114 95 205 88 108 151 220 125 117 123 125 135 149 152 149 139 130 120 111 104 97 90 85 88 90 89 98 97 91 88 84 78 71 63 54 48 42 35 29 25 24 24 24 24 22 20 18 16 14 12 12 12 13 13 10 7 8 9 11 11 12 12 10 9 7 5 4 3 2 359 353 350 348 344 341 338 335 332 331 329 328 331 332 330 330 331 331 330 330 331 330
183 211 96 98 115 132 124 105 132 161 123 152 227 127 119 123 130 140 150 156 160 144 125 118 116 110 98 93 86 89 100 107 108 101 95 90 83 78 72 64 56 49 43 35 28 25 24 24 23 22 20 18 17 15 13 12 11 12 13 14 10 10 14 13 12 13 14 13 11 10 7 6 4 1 0 358 355 351 346 341 337 335 333 332 331 331 332 336 337 335 332 333 332 331 331 331 330
138 122 98 101 97 119 133 116 109 174 217 158 119 120 115 120 133 141 147 159 164 144 130 130 127 115 101 96 95 98 106 114 109 103 100 95 89 85 77 67 59 51 44 37 31 27 24 23 22 20 17 13 13 11 9 9 8 9 11 13 12 13 16 17 14 13 15 14 12 10 7 6 4 1 360 358 354 349 344 339 335 335 335 335 336 338 339 340 342 340 335 333 333 332 333 332 335
116 126 118 114 95 86 97 100 95 136 170 141 129 129 121 127 139 144 151 166 169 148 136 138 131 118 114 114 115 110 106 113 113 109 108 103 94 86 78 68 59 52 45 38 33 28 24 23 21 18 14 11 9 9 8 8 5 7 7 7 12 13 14 17 16 15 16 15 12 9 7 6 4 3 1 357 351 345 341 337 336 339 342 344 346 345 345 343 342 341 337 335 335 336 336 337 343
103 113 107 108 100 83 87 92 80 107 140 133 133 134 135 141 149 159 163 171 177 162 149 147 141 138 146 140 128 121 116 122 124 118 115 106 91 80 73 67 61 55 46 39 33 29 26 23 22 19 16 13 12 12 12 11 7 6 6 6 12 13 12 16 18 16 16 15 11 8 8 7 5 2 359 354 348 343 340 340 341 346 349 350 351 348 346 344 343 342 340 337 338 340 341 342 346
107 111 105 104 103 96 100 104 94 76 126 117 127 135 140 147 154 166 170 173 184 178 170 172 169 167 166 148 136 135 129 130 127 121 120 110 94 80 70 64 60 55 46 38 31 29 27 25 24 21 17 15 16 14 13 12 8 4 5 5 7 12 13 14 18 17 15 14 11 10 10 7 3 360 357 352 348 346 346 347 349 351 352 351 349 347 346 344 344 344 342 339 338 341 340 340 343
115 111 113 110 106 102 97 93 100 203 220 125 140 143 140 150 155 165 175 181 189 186 184 182 174 173 166 154 149 136 128 132 131 125 127 122 100 81 69 62 56 53 46 37 31 29 27 26 26 22 18 18 18 15 13 13 11 7 6 6 6 14 17 14 15 14 12 13 12 12 10 6 2 358 357 355 352 352 352 353 353 352 351 349 346 345 345 344 344 344 343 339 337 337 332 333 341
114 112 123 105 110 116 109 100 107 170 233 141 160 157 137 152 158 165 181 188 183 179 187 177 171 176 167 162 153 138 138 141 140 134 133 127 103 79 71 69 61 53 45 36 30 27 27 27 26 23 20 19 17 14 12 11 7 1 2 5 5 11 16 14 13 12 12 12 12 11 9 6 4 1 359 358 355 355 356 355 354 353 352 350 346 343 343 343 342 342 340 337 335 332 326 328 336
101 102 111 106 136 153 112 126 134 165 276 140 174 170 135 157 169 170 183 186 170 166 171 162 177 182 162 159 152 151 155 151 148 143 139 140 122 84 77 79 69 52 40 34 29 25 27 27 25 23 21 20 17 13 10 8 4 1 0 3 4 9 14 12 12 13 12 11 11 10 8 6 4 2 360 358 356 356 358 358 356 354 353 350 345 341 341 341 340 339 337 335 334 330 322 323 328
91 48 33 99 139 64 70 124 148 160 164 170 201 192 151 168 183 172 170 180 176 171 172 172 178 172 161 164 161 162 161 155 153 147 146 152 138 104 104 96 74 59 44 38 34 29 29 29 25 22 20 20 17 12 9 8 9 11 11 11 13 14 15 14 13 13 12 11 11 7 5 4 1 359 357 356 356 356 360 1 359 356 352 349 344 341 340 340 338 337 335 333 331 328 321 320 323
114 71 35 86 123 104 103 137 168 176 148 163 220 228 140 158 186 172 161 179 181 176 181 180 174 167 175 180 170 165 162 158 152 146 151 153 139 129 127 110 77 64 52 45 42 35 34 31 25 22 22 19 17 13 11 12 15 16 15 16 16 14 14 16 14 12 10 11 9 4 2 1 359 356 355 356 357 357 1 2 359 356 352 347 344 341 341 339 336 335 334 331 329 326 322 320 322
116 101 95 107 130 135 133 156 209 277 90 142 211 274 108 152 183 173 168 182 178 178 188 184 175 170 180 183 169 168 168 160 152 150 156 149 139 139 131 115 83 66 59 52 46 41 38 32 27 23 23 21 17 14 14 17 18 18 17 18 18 17 15 16 14 12 11 10 7 3 0 359 356 355 355 357 359 0 3 2 359 355 350 347 344 344 342 338 334 332 331 330 328 325 324 323 322
93 113 146 146 161 157 150 198 237 19 73 166 197 258 273 148 156 162 176 190 182 184 190 186 180 174 178 181 169 171 173 165 164 163 161 154 146 139 128 117 91 77 69 54 47 44 39 33 28 25 24 23 19 16 18 19 19 18 18 19 20 20 17 14 13 13 12 9 6 3 0 356 354 355 356 359 1 4 4 2 358 353 350 347 346 345 342 336 333 331 332 331 328 325 324 321 317
93 123 164 170 195 181 197 268 283 37 247 187 165 224 260 117 130 156 178 197 197 192 191 186 183 176 176 179 173 171 169 169 176 170 161 158 151 141 134 125 107 96 81 59 51 46 41 35 29 26 24 23 20 18 18 19 20 20 21 23 22 20 19 16 13 13 12 9 6 4 0 356 354 355 358 1 3 4 4 2 357 352 351 349 347 344 339 336 333 332 332 331 328 325 322 318 317
105 137 175 185 221 218 240 275 304 273 253 62 113 208 271 106 134 163 182 206 210 195 190 186 182 177 175 175 174 172 168 171 178 167 158 159 154 147 141 134 123 111 90 70 58 46 40 34 28 26 24 22 21 19 18 18 21 24 25 26 24 21 20 19 17 14 12 9 6 4 1 357 355 356 359 2 4 4 4 1 355 352 352 350 346 343 340 339 336 333 332 330 329 326 323 321 320
128 158 179 186 214 230 249 264 287 266 212 70 97 217 280 72 129 153 172 197 205 187 180 179 179 176 172 173 174 173 170 172 175 165 157 156 154 153 150 142 134 123 101 78 61 47 40 33 27 26 25 22 21 19 19 21 25 29 29 29 27 24 21 20 19 15 11 9 6 4 1 357 355 357 359 2 3 4 2 358 354 353 353 349 346 344 342 340 338 336 333 331 332 330 328 328 325
163 189 198 211 208 214 243 220 226 271 80 70 105 193 256 276 94 122 145 156 183 185 173 174 179 175 169 174 175 172 172 173 172 163 157 157 158 161 160 149 141 133 107 80 60 47 41 33 28 27 25 23 21 20 23 26 30 32 30 30 30 26 23 22 20 17 11 8 6 4 2 357 356 358 360 2 2 3 0 354 353 354 352 348 348 346 344 342 341 338 334 334 336 335 333 332 327
204 224 223 246 217 151 266 170 145 32 67 54 57 181 235 260 74 102 146 156 169 184 174 171 175 172 168 173 174 170 172 173 169 163 160 165 168 168 164 155 148 139 113 89 66 50 43 35 29 28 26 23 21 23 28 31 34 34 31 31 30 28 27 25 22 18 12 8 6 5 4 360 358 358 0 1 360 360 358 353 354 355 351 348 349 347 345 345 343 337 334 337 339 336 334 333 329
213 220 239 285 358 23 5 36 50 48 73 64 101 188 245 119 97 103 142 155 155 167 173 166 168 168 167 170 172 169 169 171 167 165 167 171 172 168 161 158 152 139 121 95 72 56 47 39 31 30 28 25 25 28 31 35 36 35 34 33 31 29 28 26 23 18 12 9 8 7 7 4 0 0 1 360 358 358 357 354 355 356 351 350 351 350 348 345 343 339 339 341 339 336 337 337 336
206 238 274 295 336 352 356 13 21 19 35 88 142 206 344 32 107 111 111 130 154 163 160 157 160 164 165 168 170 168 168 170 168 170 172 169 167 162 157 158 152 138 124 96 74 60 51 44 36 31 29 27 29 32 34 37 38 37 37 35 33 32 29 27 24 20 15 12 10 9 9 6 3 2 2 0 0 359 357 356 358 357 353 352 352 351 350 348 346 344 344 343 341 342 343 343 344
171 227 259 293 342 335 332 340 345 343 341 55 158 240 31 68 123 130 128 149 163 161 154 157 158 159 164 168 169 170 170 173 172 172 170 162 161 160 157 156 151 139 125 101 81 66 55 48 40 34 31 30 33 36 36 39 40 39 37 35 35 34 30 27 23 20 17 14 13 11 9 6 3 4 4 2 3 2 359 358 360 357 351 349 346 345 349 352 350 347 346 345 346 350 351 350 349
161 210 237 7 346 309 310 297 241 263 324 25 352 320 94 110 135 150 163 166 165 165 163 164 162 159 166 171 172 174 174 174 173 170 165 161 161 160 158 157 151 142 128 110 93 78 64 52 44 37 34 35 37 39 39 39 40 39 37 35 34 33 30 28 25 22 19 16 15 13 9 5 5 8 7 5 5 5 2 2 2 356 349 346 345 344 351 356 353 351 352 350 351 354 356 358 356
235 234 104 123 246 264 291 304 276 321 16 41 17 7 52 66 84 154 181 176 170 174 171 169 166 165 172 176 177 176 174 173 171 165 162 162 162 160 159 156 148 139 127 117 107 93 77 61 51 43 38 38 39 41 42 41 40 37 35 33 33 33 31 29 27 24 21 18 17 15 9 5 8 12 11 8 8 7 6 7 5 358 350 348 348 348 355 1 357 356 356 355 357 359 1 4 5
265 321 14 245 275 256 205 310 331 355 7 22 10 6 41 40 45 126 183 182 177 178 175 174 172 173 177 178 179 177 171 171 169 164 161 162 164 161 157 153 144 138 129 121 114 99 85 71 59 51 46 45 43 46 47 44 42 38 35 34 34 34 33 32 30 26 23 20 17 15 10 6 11 15 13 11 11 10 9 10 8 1 352 350 351 351 357 3 2 1 360 358 1 4 4 7 10
235 275 249 246 298 318 326 324 325 330 341 3 352 351 49 44 22 20 128 176 180 179 179 180 177 178 180 178 179 177 172 173 170 165 164 164 164 160 156 152 145 140 133 124 115 101 90 76 62 55 53 52 51 51 51 47 43 40 38 37 36 36 35 33 30 26 24 20 16 15 11 7 12 17 16 14 15 14 13 13 12 4 356 352 353 354 358 4 5 6 3 360 2 7 8 8 13
205 229 229 222 236 277 293 277 281 313 322 350 344 340 36 45 15 360 24 166 180 182 182 183 179 178 180 178 179 176 173 175 171 167 166 162 160 157 155 153 145 141 135 125 117 103 90 74 61 55 54 58 59 56 53 49 44 41 39 39 38 36 35 33 30 26 24 20 17 15 11 7 11 17 18 16 17 18 16 16 14 6 358 355 355 356 359 3 7 8 6 4 6 9 11 11 13
237 235 228 232 240 258 278 267 210 295 307 331 330 325 12 48 39 355 359 172 180 184 184 181 179 178 177 177 178 178 175 173 171 168 163 158 157 157 157 153 147 143 137 126 116 101 86 73 63 57 54 60 63 61 58 52 47 42 41 40 39 37 35 32 30 26 23 20 17 15 12 9 9 14 19 19 19 20 20 19 14 5 359 358 358 359 0 3 7 10 9 9 10 11 13 15 16
Height
784 783 782 781 780 779 775 774 786 785 783 798 801 801 807 804 804 807 808 810 811 814 812 808 805 804 809 814 814 813 815 818 823 825 829 826 821 824 821 822 821 820 820 819 819 819 819 817 816 816 816 815 815 814 814 813 813 812 811 810 810 809 808 807 807 806 805 804 803 802 801 800 799 798 797 796 795 794 793 792 792 791 791 790 789 788 787 786 786 786 785 785 784 784 784 783 783
784 783 781 781 778 779 776 774 789 788 786 803 804 805 809 805 813 816 811 812 813 812 809 808 809 808 807 808 807 810 818 817 817 819 820 822 822 823 822 823 821 820 820 819 820 819 820 818 817 817 816 816 815 815 814 813 813 812 812 811 810 809 809 808 807 806 805 804 803 802 801 800 799 798 797 796 795 794 793 793 792 791 791 790 788 788 787 786 786 785 785 785 784 784 783 783 782
784 782 780 780 776 775 776 777 789 790 793 807 810 809 807 809 819 818 812 813 812 809 808 810 812 814 811 810 811 815 822 820 817 816 817 821 821 821 823 822 821 821 820 820 820 820 820 819 818 817 817 817 816 815 814 814 813 813 812 811 811 810 809 808 807 806 805 804 803 802 801 800 799 798 797 796 795 795 794 793 792 791 791 789 788 787 787 786 786 785 785 784 783 783 783 782 782
783 782 780 777 775 776 779 784 789 791 799 806 812 812 809 813 814 813 814 814 811 809 809 809 813 814 811 814 816 818 823 820 819 818 818 822 822 823 823 822 822 821 821 821 820 820 820 819 818 818 817 817 816 816 815 815 814 813 812 812 811 810 809 808 807 806 805 804 803 802 801 800 799 798 797 796 795 794 794 793 792 791 790 789 788 787 787 786 785 785 784 784 783 782 782 781 781
782 782 780 777 779 782 782 787 790 799 809 807 812 816 812 814 813 813 814 813 811 811 810 809 816 814 809 814 815 820 823 819 819 820 821 824 824 824 824 823 823 821 822 821 821 821 820 819 819 818 818 817 817 816 816 815 814 814 813 812 811 810 809 808 807 806 805 804 803 802 801 800 799 798 797 796 796 794 794 793 792 791 790 789 788 787 786 785 785 784 783 783 782 781 781 780 780
780 780 777 776 778 782 788 792 798 810 816 809 813 817 814 813 812 813 813 813 812 811 810 810 815 814 815 818 816 820 823 820 820 822 823 824 825 825 824 824 823 822 822 822 822 821 821 820 819 819 818 818 818 817 816 816 815 814 813 812 811 810 809 808 807 806 805 804 803 802 801 800 799 798 797 797 796 795 794 793 792 791 790 789 788 787 786 785 784 783 783 782 781 780 780 779 778
780 780 776 780 779 781 793 799 804 813 816 812 815 816 814 814 812 812 814 814 814 813 811 811 810 813 821 819 818 822 822 822 822 823 824 824 825 825 824 824 823 823 822 822 822 822 821 820 820 820 819 819 818 817 817 816 815 814 813 812 812 811 810 809 807 806 805 804 803 802 801 800 799 798 798 797 796 795 794 793 792 790 790 789 788 787 785 785 784 783 782 781 780 779 779 778 777
781 782 778 785 788 785 795 803 809 814 815 813 813 815 816 816 813 813 814 814 818 817 814 813 808 816 823 817 822 825 823 824 823 825 825 825 825 825 825 824 824 823 823 823 823 822 822 821 821 820 819 819 818 818 817 816 815 814 813 812 812 811 810 809 808 807 805 804 803 802 801 800 799 798 798 797 796 795 794 793 791 790 789 788 787 786 785 784 783 782 781 780 780 779 778 777 776
778 781 782 786 791 792 799 806 813 815 815 814 813 817 817 816 814 814 815 817 820 819 817 814 810 822 826 821 826 825 823 826 825 826 825 826 826 825 826 825 825 824 824 824 823 823 822 822 821 821 820 819 819 818 817 816 815 814 814 813 812 811 810 809 808 807 806 805 803 803 801 800 799 798 798 796 796 794 793 792 791 790 789 788 787 786 785 784 783 782 781 780 779 778 777 776 775
777 780 784 787 789 796 803 807 813 816 817 816 816 818 817 816 815 815 817 820 821 820 818 812 812 822 826 826 828 824 826 827 826 827 826 827 826 826 827 825 826 825 825 825 824 824 823 823 822 821 821 820 819 818 818 817 816 815 814 813 812 811 810 809 808 807 806 805 804 803 802 801 800 798 798 796 795 794 793 792 791 790 788 788 786 785 784 783 782 781 779 778 777 776 776 775 774
781 780 783 789 793 797 804 809 814 817 816 817 817 817 816 816 816 817 818 821 820 819 818 815 816 819 822 826 828 827 828 827 826 827 827 828 827 827 827 827 827 826 826 825 825 825 824 823 822 822 821 821 820 819 818 817 816 815 814 814 813 812 810 809 808 807 806 805 804 803 802 801 800 799 798 797 796 794 793 792 790 789 788 787 786 784 783 782 781 779 778 777 776 775 774 774 773
785 785 784 793 798 800 803 809 816 815 815 819 819 816 815 815 817 820 820 820 817 819 820 817 817 817 821 826 830 830 828 829 827 828 828 828 828 828 828 828 828 827 827 826 826 825 824 824 823 822 822 821 820 820 819 818 817 816 815 814 813 812 811 810 808 807 806 805 804 803 802 801 800 799 798 797 795 794 793 792 790 789 788 787 785 784 782 781 780 778 777 776 775 774 773 772 771
786 787 787 796 799 800 803 809 813 814 818 819 820 817 816 817 820 821 820 820 819 822 824 818 816 820 822 823 829 832 830 830 828 829 829 829 829 829 829 829 828 828 828 827 826 825 825 824 824 823 822 822 821 820 819 818 817 816 815 814 813 812 811 810 809 808 807 806 805 803 803 801 800 799 798 797 795 794 793 791 790 789 787 786 784 783 782 780 779 778 776 775 774 773 772 771 770
785 785 789 798 799 799 803 808 809 821 830 820 818 819 819 822 822 820 819 824 826 825 825 820 816 821 823 825 832 834 832 831 829 831 830 830 830 829 830 829 829 829 828 827 827 826 826 825 824 824 822 822 821 820 819 818 817 816 815 814 813 812 811 811 809 808 807 806 805 804 803 801 800 799 798 796 795 794 792 791 790 788 787 785 784 782 781 780 778 777 775 774 773 772 770 769 768
783 784 789 797 801 802 806 808 806 824 835 820 820 822 822 825 821 821 821 826 829 824 823 821 818 822 827 832 837 834 832 832 831 832 831 831 831 830 831 830 830 829 829 828 827 827 826 826 825 824 823 822 821 821 820 819 818 817 816 815 814 813 812 811 810 809 807 806 805 804 803 802 801 799 798 797 795 793 792 791 789 788 787 785 784 782 780 779 777 776 774 773 771 770 769 768 766
781 783 790 798 802 806 809 807 806 822 828 820 822 820 824 827 820 824 823 823 827 824 823 824 822 825 830 833 835 833 833 833 833 833 832 831 831 831 830 830 830 830 830 829 828 828 827 826 825 825 824 823 822 821 820 819 818 817 816 815 814 813 812 811 810 809 808 807 805 804 803 802 801 799 798 797 795 793 792 790 789 787 786 785 783 781 780 778 777 775 773 772 770 769 767 766 764
780 784 794 800 803 809 810 806 813 824 822 820 821 818 828 831 824 824 822 821 825 826 827 829 828 829 831 833 834 834 834 834 833 832 831 830 829 829 830 830 830 830 830 830 829 829 828 827 826 826 824 823 823 822 821 820 819 818 817 816 815 814 813 812 811 810 809 807 806 805 803 802 801 800 798 797 795 794 792 790 789 787 785 784 782 781 779 777 776 774 772 771 769 767 765 764 762
785 790 798 804 807 811 811 808 814 819 818 821 820 819 828 831 827 824 823 825 825 827 830 831 831 831 834 835 835 835 834 834 833 832 832 831 830 830 830 830 831 831 831 830 830 829 829 828 827 826 825 824 824 823 822 821 820 819 818 817 816 815 814 813 812 811 810 808 807 805 804 803 801 800 798 797 795 794 792 790 788 787 785 783 782 780 778 776 774 773 771 769 768 766 764 762 761
790 794 801 809 811 811 810 809 811 813 818 822 821 821 825 828 827 823 826 830 827 829 832 830 832 833 835 836 836 835 834 834 834 833 833 833 832 832 832 832 832 832 831 831 831 830 830 829 828 827 826 825 824 824 823 821 821 820 819 818 817 816 815 814 813 811 810 809 808 806 805 803 802 800 798 797 795 794 792 790 788 787 785 783 781 779 778 776 774 772 771 769 767 765 764 762 760
792 795 807 814 812 812 810 810 813 814 817 821 824 825 825 827 825 823 827 831 831 834 834 831 834 836 834 835 835 835 834 835 835 835 835 835 834 834 834 834 833 833 833 832 832 832 831 830 829 828 827 826 825 824 824 823 822 821 820 819 818 817 816 815 814 812 811 810 808 807 805 804 802 800 798 797 795 794 792 790 788 786 785 783 781 779 777 775 773 772 770 768 766 765 763 762 760
796 798 810 813 811 816 815 813 815 815 817 821 824 826 828 827 824 824 825 830 837 838 836 834 836 836 835 835 835 835 836 836 836 836 836 836 836 836 836 835 835 835 834 834 833 833 832 831 830 829 828 827 827 826 825 824 823 822 821 820 819 818 817 816 814 813 812 810 809 807 806 804 802 800 798 797 795 794 792 790 788 787 785 783 781 779 777 775 773 771 770 768 766 764 763 761 759
804 806 809 809 811 820 819 816 818 818 819 822 825 828 829 827 826 827 826 832 840 839 838 836 835 835 836 836 837 837 837 838 838 838 838 838 838 838 837 837 837 836 835 835 835 835 834 833 831 830 830 829 828 827 826 825 824 823 822 821 820 819 818 817 815 814 812 811 809 807 806 804 802 800 799 797 796 794 792 791 789 787 785 783 782 779 778 776 774 772 770 768 766 764 762 760 759
808 814 811 811 814 820 820 819 821 820 822 825 827 828 827 829 834 833 832 838 840 838 838 838 837 837 838 838 838 838 838 839 839 839 840 840 840 839 839 839 838 837 837 837 837 837 836 834 833 832 831 830 829 828 827 826 825 824 823 822 821 820 819 817 816 814 813 811 809 808 806 804 802 801 800 798 796 795 793 791 789 788 786 784 782 780 778 776 774 772 770 768 766 763 762 760 758
810 818 817 816 818 820 821 821 823 822 824 826 825 827 828 833 838 837 838 841 839 840 839 839 840 840 840 840 839 840 840 841 841 841 842 842 842 841 841 840 840 839 839 839 839 838 838 836 835 834 832 831 830 829 828 827 826 825 824 823 822 821 819 818 816 815 813 811 810 808 806 805 803 802 800 798 797 795 794 792 790 788 786 785 783 781 779 777 775 772 770 768 765 763 761 759 757
814 821 820 819 821 822 822 823 824 824 825 825 826 830 832 834 837 839 842 841 841 843 843 841 841 841 840 841 841 841 841 842 842 842 843 843 843 843 842 842 841 841 841 841 841 840 839 838 836 835 833 832 831 830 829 828 827 826 825 823 822 821 820 818 817 815 813 812 810 809 807 806 804 803 801 799 798 796 794 793 791 789 787 785 783 781 779 777 774 772 770 767 765 762 760 758 756
818 820 822 822 824 823 823 825 826 826 826 826 830 833 834 833 835 842 843 842 843 844 844 842 841 842 841 842 842 841 842 842 843 843 844 844 844 844 844 844 843 843 844 843 842 842 840 839 837 835 834 833 832 830 829 828 827 826 825 824 823 821 820 819 817 815 814 812 811 810 808 807 805 804 802 800 798 796 795 793 791 789 787 785 783 781 779 777 774 772 769 767 764 762 759 757 755
817 819 822 822 825 824 824 827 827 827 827 827 831 835 833 831 836 846 845 842 843 843 843 841 841 843 843 842 842 841 842 843 844 844 845 845 845 845 845 845 845 845 845 845 844 843 841 840 838 836 835 833 832 831 830 829 828 827 826 824 823 822 820 819 817 816 814 813 812 811 809 808 806 804 803 801 799 797 795 793 792 790 788 786 784 781 779 777 774 772 769 767 764 761 759 756 754
817 820 824 824 825 825 825 827 828 828 829 827 829 833 833 833 840 847 845 843 842 841 842 842 842 843 842 843 842 842 844 844 846 846 846 846 846 847 847 847 847 847 846 846 845 844 842 840 838 837 835 834 833 832 831 830 829 827 826 825 824 822 821 819 818 816 815 814 812 811 809 808 807 805 803 801 799 797 795 794 792 790 788 786 784 781 779 777 774 771 769 766 764 761 758 756 753
817 818 825 828 825 827 827 827 828 828 831 829 829 836 839 842 847 846 844 843 842 841 844 844 844 843 842 843 843 844 845 846 847 847 848 848 849 849 849 849 848 848 848 847 846 844 842 840 839 838 836 835 834 833 832 830 829 828 827 825 824 823 821 820 818 817 815 814 813 811 810 808 807 805 804 802 800 798 796 794 792 790 788 786 784 781 778 776 773 770 768 766 763 761 758 755 752
818 817 822 826 827 832 830 827 829 829 832 830 833 846 849 848 848 845 843 842 841 842 844 845 845 844 844 844 844 846 847 848 848 849 850 850 851 851 850 851 850 849 849 848 847 845 843 841 840 839 837 836 835 834 832 831 830 828 827 826 825 823 822 820 819 817 816 815 813 812 810 809 807 806 804 802 800 798 796 794 792 790 788 786 783 781 778 775 772 770 767 765 762 760 757 754 752
818 820 820 820 829 838 832 828 832 832 832 829 834 848 852 849 847 846 844 842 842 844 844 845 845 844 845 845 846 847 848 850 850 850 851 851 852 852 852 852 851 851 850 849 847 846 845 843 841 840 838 837 836 834 833 832 830 829 828 826 825 824 822 821 819 818 817 815 814 812 811 810 808 807 805 803 801 799 797 794 793 790 788 786 783 780 778 775 772 770 767 765 762 759 756 754 751
818 825 827 822 828 839 834 830 833 833 831 828 835 847 850 847 846 845 844 843 843 845 845 844 844 844 845 846 846 848 849 850 851 851 852 852 853 853 853 853 852 852 851 850 849 847 846 844 842 841 839 838 836 835 833 832 831 830 829 827 826 824 823 821 820 819 817 816 814 813 812 810 808 807 805 804 801 799 797 795 793 790 788 785 782 780 777 775 772 769 767 765 762 759 756 753 751
817 820 830 830 828 835 836 832 830 829 830 828 832 841 846 845 844 844 843 844 844 844 844 844 845 845 845 847 847 848 850 850 850 851 852 853 853 854 854 854 853 853 852 851 849 848 846 845 843 842 840 839 837 836 834 833 832 830 829 828 826 825 823 822 821 819 818 816 815 814 812 811 809 808 806 804 802 800 798 795 793 790 788 785 782 780 777 775 773 770 768 765 763 759 756 752 749
819 818 826 831 827 830 835 835 830 828 831 831 830 837 842 842 841 842 842 842 843 842 844 844 845 845 845 846 847 847 849 849 850 851 852 853 854 855 854 854 854 853 853 852 850 849 847 846 844 843 841 840 838 836 835 833 832 831 829 828 827 825 824 823 821 820 819 817 816 815 813 811 810 808 807 805 802 800 798 795 793 790 788 785 783 780 778 776 774 772 768 765 763 760 756 753 750
823 823 825 829 827 828 834 836 833 829 833 834 834 840 842 841 840 841 841 840 841 842 843 844 844 845 846 845 846 847 847 849 850 852 853 854 855 855 855 855 855 854 853 852 851 850 848 847 845 844 842 840 839 837 836 834 832 831 830 828 827 826 824 823 822 821 819 818 817 815 814 812 811 809 807 805 803 801 798 795 793 790 788 786 784 781 779 777 774 772 769 766 763 760 757 754 752
819 819 820 826 829 833 834 835 833 828 832 835 837 841 843 842 842 842 841 840 842 843 843 845 845 846 845 845 845 846 846 849 851 852 853 854 854 855 855 855 855 855 854 853 852 851 849 848 846 845 843 841 840 838 836 834 833 831 830 828 827 826 825 824 823 822 820 819 817 816 815 813 811 810 808 806 803 801 798 796 793 791 789 786 784 782 779 777 775 773 770 767 764 761 758 755 754
815 817 819 824 830 836 834 833 832 828 833 838 836 839 841 840 841 840 840 840 842 844 845 846 845 845 845 845 845 846 847 849 850 852 854 854 855 856 856 856 856 855 855 854 853 851 850 849 847 845 844 842 840 839 837 835 833 832 830 829 828 826 826 824 823 822 821 820 819 817 815 814 812 810 808 806 804 801 798 796 793 791 789 787 785 783 781 779 777 775 772 769 765 761 758 755 754
816 818 821 824 828 834 833 832 832 828 834 840 836 837 840 838 839 838 838 840 841 841 843 844 843 844 844 844 845 845 847 848 850 851 853 854 855 856 856 856 856 856 855 854 853 852 851 849 848 847 845 843 842 840 838 836 835 833 832 830 829 827 826 825 824 823 822 821 819 818 816 815 813 811 809 806 804 801 799 797 795 793 790 788 786 784 782 780 777 775 773 770 766 763 759 756 754
818 819 822 826 828 832 834 832 831 829 833 838 835 836 839 836 835 837 836 837 838 837 838 840 840 842 842 843 843 844 847 848 849 851 852 854 855 856 857 856 857 856 855 855 854 853 852 850 849 848 846 844 842 841 839 837 836 834 833 831 830 829 827 826 825 824 823 822 820 819 817 816 814 811 809 807 804 802 800 798 796 794 792 790 787 785 782 780 778 775 773 770 767 764 759 757 755
820 820 821 828 829 830 835 835 833 831 830 833 833 833 837 837 835 835 835 835 835 836 837 838 839 840 841 842 843 844 846 848 849 850 852 854 855 856 857 857 857 856 856 855 855 854 852 851 850 848 847 845 843 842 840 838 837 835 833 832 830 829 828 827 826 825 824 822 821 819 818 816 814 812 810 808 806 804 802 800 797 795 793 791 788 785 782 780 778 775 773 770 768 765 760 757 755
822 822 822 827 829 828 830 833 833 832 831 830 831 835 836 836 837 835 833 834 835 836 838 839 840 840 841 842 843 844 844 846 848 850 851 853 854 855 856 857 857 856 856 856 855 854 853 852 851 849 847 846 844 842 840 839 837 835 834 832 831 830 829 828 827 826 824 823 822 820 819 817 815 813 811 809 807 805 803 801 798 796 794 791 788 785 783 781 779 776 773 771 769 767 763 758 755
826 825 824 824 827 828 829 832 834 835 839 832 833 844 840 831 833 832 832 835 836 836 837 839 840 840 842 842 843 844 844 846 847 849 850 852 853 855 856 857 857 857 857 856 856 855 854 853 851 850 848 846 845 843 841 840 838 836 834 833 832 830 829 829 827 826 825 824 823 821 820 818 816 814 812 810 808 805 804 801 799 797 794 792 789 786 784 782 779 776 774 772 769 767 764 760 756
830 828 824 824 825 828 830 833 834 835 838 831 830 844 841 830 830 828 829 833 834 836 836 836 837 838 841 841 842 844 845 846 848 849 850 851 853 855 856 856 856 857 857 857 856 855 854 853 852 850 849 847 846 844 842 841 839 837 836 834 833 832 831 830 829 828 827 825 824 822 821 819 817 815 812 810 808 806 804 802 800 798 795 792 790 787 785 782 780 777 774 772 769 767 764 761 757
832 827 824 827 827 828 829 829 830 828 831 830 828 835 835 830 828 823 826 831 832 834 834 833 833 835 838 839 840 843 844 846 848 849 849 851 853 854 855 856 856 857 857 857 856 856 854 854 852 851 850 848 847 845 843 842 840 838 837 836 834 834 833 832 830 829 828 826 825 823 821 819 817 815 813 811 809 807 805 803 801 798 796 793 791 788 786 783 780 777 774 772 769 767 764 761 757
828 824 824 827 826 826 826 825 823 822 829 834 827 828 833 830 825 822 825 830 832 831 831 831 831 832 835 837 839 841 843 845 846 847 849 851 853 854 855 856 857 857 857 857 856 856 855 854 853 852 850 849 848 846 845 843 841 840 838 837 836 835 834 833 832 830 829 827 826 824 822 820 818 816 814 812 810 808 806 804 801 799 797 795 792 789 786 783 780 777 774 771 769 766 764 760 756
823 824 825 826 825 824 826 826 823 823 831 833 826 825 831 829 823 824 829 831 829 826 825 827 828 830 833 835 838 840 841 844 844 845 848 850 852 854 855 856 857 857 857 857 857 856 855 854 854 852 851 850 849 847 846 844 842 841 839 838 837 837 835 834 833 831 829 828 826 825 822 820 818 816 814 813 811 809 807 805 802 800 798 795 793 789 786 783 780 777 774 771 768 765 762 759 755
821 825 827 829 829 826 826 824 823 832 837 831 824 823 828 830 819 814 822 822 817 817 820 824 825 827 831 833 836 838 839 841 842 843 846 849 852 853 855 856 856 857 857 857 857 856 856 855 854 853 852 851 849 848 847 845 843 842 841 840 839 838 837 835 834 832 830 829 827 825 823 821 819 817 815 814 812 810 808 805 803 801 799 796 793 790 787 784 781 777 774 770 767 764 761 758 755
822 824 827 834 835 831 832 830 832 845 844 829 820 818 828 836 818 804 809 810 807 810 814 820 824 825 829 831 833 834 837 838 839 842 845 848 851 853 854 855 856 857 857 857 857 856 856 856 855 854 852 851 850 849 848 846 844 843 842 841 840 839 838 836 834 833 831 829 828 826 824 822 820 818 817 815 813 811 809 807 804 802 799 796 793 791 788 785 781 777 773 770 767 764 761 758 754
823 825 831 840 838 838 843 838 836 841 836 823 816 821 830 825 808 801 805 805 806 807 807 813 819 822 826 829 830 831 833 836 837 840 844 847 850 851 853 855 855 856 857 857 857 857 856 856 855 854 853 852 851 850 849 847 846 845 843 842 841 840 839 837 836 834 833 831 829 827 825 823 821 820 818 816 814 813 810 808 805 803 800 797 794 792 789 785 781 777 773 771 768 764 761 757 754
826 826 832 840 840 849 852 838 832 835 831 821 817 825 826 813 803 801 802 802 804 804 804 808 813 819 824 826 827 829 831 834 836 839 843 845 847 850 852 854 855 856 857 857 857 857 857 857 856 855 854 853 852 851 850 848 847 846 845 844 843 841 840 838 837 836 834 833 831 829 828 826 824 822 820 818 816 814 812 809 806 803 800 797 795 792 789 785 782 777 774 771 768 764 760 756 753
822 818 822 831 833 843 849 839 835 835 828 821 824 829 821 813 809 802 801 802 802 804 805 806 811 816 821 823 825 829 831 833 836 838 840 843 846 848 851 853 854 856 856 857 857 857 857 857 856 856 855 854 853 851 851 850 848 847 846 845 844 842 841 840 839 837 836 834 832 831 829 827 825 824 822 820 818 815 812 810 807 805 801 798 795 792 789 786 782 778 775 772 768 764 760 756 752
822 815 821 828 820 823 833 835 836 835 832 826 824 819 805 804 807 798 801 806 802 806 808 808 814 816 819 824 825 828 831 832 834 836 838 842 845 848 850 853 854 855 856 857 857 858 858 858 857 856 855 854 853 852 852 851 850 849 847 846 845 844 843 841 840 839 837 836 834 832 830 828 827 825 823 821 819 816 814 811 808 805 802 798 795 792 789 787 783 779 775 772 769 765 760 756 752
823 820 824 819 809 814 827 837 835 836 843 832 816 808 797 803 811 801 801 807 804 808 810 810 815 817 820 824 825 827 829 830 833 834 837 841 845 847 850 852 853 854 856 857 857 858 858 858 858 857 856 855 854 853 852 851 851 850 849 848 846 845 844 843 841 840 838 837 835 833 832 829 828 827 824 822 820 817 815 812 810 806 802 799 796 793 791 789 784 780 777 773 769 765 760 756 752
820 822 817 808 810 814 821 837 837 833 840 828 813 811 805 809 818 807 802 808 807 808 809 811 814 817 821 823 823 825 826 829 831 833 837 841 844 847 849 851 853 854 855 856 857 858 858 858 858 857 857 856 855 854 853 852 851 851 850 848 847 846 845 844 843 841 839 838 836 834 832 830 829 828 826 823 821 818 816 813 811 808 803 800 797 794 792 790 786 781 777 774 770 766 761 757 753
812 814 807 809 824 825 821 834 840 837 841 832 815 809 804 805 808 804 803 807 807 807 807 810 813 816 819 820 822 824 825 829 831 833 837 840 843 846 848 850 852 853 855 856 857 858 858 859 858 858 857 857 856 855 854 853 852 852 851 850 848 847 846 845 844 842 840 839 837 835 833 831 830 829 827 824 822 819 817 815 813 809 805 802 798 795 793 791 787 783 779 775 771 768 764 759 755
811 811 808 809 819 821 819 824 828 832 840 837 826 816 808 802 797 795 798 799 802 806 806 808 811 813 815 817 820 822 824 828 829 832 836 838 842 845 847 850 851 853 855 855 857 858 858 859 858 858 858 857 857 856 854 854 853 853 852 851 850 849 847 846 844 843 841 840 838 836 834 832 831 830 828 826 823 821 819 816 814 811 807 803 800 797 795 793 789 785 781 776 772 770 767 762 758
814 817 815 814 814 815 817 816 814 821 832 836 836 830 813 797 792 792 793 793 796 800 803 805 807 809 812 815 817 820 823 826 828 831 834 837 842 845 847 849 850 852 854 855 857 858 858 859 859 859 858 858 857 856 855 855 854 854 853 852 851 850 848 847 845 844 842 840 839 837 836 834 832 831 829 827 825 823 821 818 816 813 809 805 802 799 796 794 791 788 784 779 773 772 770 766 762
806 809 809 811 811 813 823 826 815 813 822 826 833 835 815 793 790 793 791 791 792 794 798 802 804 807 810 813 816 819 822 825 827 829 832 837 841 844 847 848 850 852 853 855 856 857 858 859 859 859 859 858 858 857 856 856 855 855 854 853 852 851 850 848 846 845 843 841 840 838 837 835 833 832 830 828 827 825 822 820 817 814 811 807 804 801 798 796 793 790 787 782 776 774 772 769 767